Weather History for Farmingdale, NY

Change the Weather History Date:

Sunday, April 27, 2014

  Actual Average Record
Temperature  
Mean Temperature 49 °F -  
Max Temperature 55 °F 60 °F 70 °F (2003)
Min Temperature 43 °F 43 °F 36 °F (2002)
Degree Days  
Heating Degree Days 16    
Moisture  
Dew Point 37 °F    
Average Humidity 67    
Maximum Humidity 93    
Minimum Humidity 40    
Precipitation  
Precipitation 0.00 in - - ()
Sea Level Pressure  
Sea Level Pressure 29.97 in    
Wind  
Wind Speed 6 mph (North)    
Max Wind Speed 16 mph    
Max Gust Speed 25 mph    
Visibility 10 miles    
Events      
Averages and records for this station are not official NWS values.
T = Trace of Precipitation, MM = Missing Value Source: NWS Daily Summary

Daily Weather History Graph

Daily Weather History Graph

Search for Another Location

Airport:

Trip Planner

Search our weather history database for the weather conditions in past years. The results will help you decide how hot, cold, wet, or windy it might be!

Date:

Astronomy

Apr. 27, 2014 Rise Set
Actual Time 5:57 AM EDT 7:45 PM EDT
Civil Twilight 5:28 AM EDT 8:15 PM EDT
Nautical Twilight 4:52 AM EDT 8:50 PM EDT
Astronomical Twilight 4:14 AM EDT 9:29 PM EDT
Moon 4:57 AM EDT 6:16 PM EDT
Length of Visible Light 14h 46m
Length of Day
13h 48m
Waning Crescent, 3% of the Moon is Illuminated
Apr 27
Waning Crescent
Apr 29
New
May 6
First Quarter
May 14
Full
May 21
Last Quarter

Hourly Weather History & Observations

Time (EDT) Temp. Windchill Dew Point Humidity Pressure Visibility Wind Dir Wind Speed Gust Speed Precip Events Conditions
12:53 AM 45.0 °F - 42.1 °F 90% 29.88 in 10.0 mi Calm Calm - N/A   Scattered Clouds
1:27 AM 44.6 °F 41.4 °F 42.8 °F 93% 29.89 in 10.0 mi NE 5.8 mph - N/A   Overcast
1:50 AM 44.6 °F 43.1 °F 42.8 °F 93% 29.88 in 10.0 mi ENE 3.5 mph - N/A   Overcast
1:53 AM 45.0 °F 43.5 °F 43.0 °F 93% 29.89 in 10.0 mi ENE 3.5 mph - N/A   Overcast
2:02 AM 44.6 °F 43.1 °F 42.8 °F 93% 29.88 in 10.0 mi East 3.5 mph - N/A   Overcast
2:53 AM 45.0 °F - 43.0 °F 93% 29.88 in 10.0 mi Calm Calm - N/A   Overcast
3:53 AM 44.1 °F - 42.1 °F 93% 29.88 in 10.0 mi Calm Calm - N/A   Overcast
4:53 AM 43.0 °F 40.3 °F 41.0 °F 93% 29.89 in 9.0 mi WNW 4.6 mph - N/A   Clear
5:53 AM 43.0 °F 41.3 °F 41.0 °F 93% 29.91 in 10.0 mi NW 3.5 mph - N/A   Clear
6:53 AM 44.1 °F 40.8 °F 39.9 °F 85% 29.93 in 10.0 mi NW 5.8 mph - N/A   Clear
8:53 AM 50.0 °F - 37.0 °F 61% 29.95 in 10.0 mi NNW 10.4 mph 17.3 mph N/A   Partly Cloudy
9:53 AM 52.0 °F - 35.1 °F 53% 29.96 in 10.0 mi North 15.0 mph 24.2 mph N/A   Scattered Clouds
10:53 AM 53.1 °F - 34.0 °F 48% 29.98 in 10.0 mi NNW 12.7 mph 25.3 mph N/A   Clear
12:53 PM 55.0 °F - 33.1 °F 43% 29.98 in 10.0 mi NNW 13.8 mph 20.7 mph N/A   Overcast
1:53 PM 55.0 °F - 32.0 °F 42% 29.98 in 10.0 mi NNW 15.0 mph 20.7 mph N/A   Overcast
2:53 PM 55.0 °F - 32.0 °F 42% 29.98 in 10.0 mi North 16.1 mph 23.0 mph N/A   Overcast
4:53 PM 55.9 °F - 32.0 °F 40% 29.99 in 10.0 mi NNW 10.4 mph 19.6 mph N/A   Overcast
5:53 PM 55.0 °F - 32.0 °F 42% 30.00 in 10.0 mi North 12.7 mph - N/A   Overcast
6:53 PM 54.0 °F - 33.1 °F 45% 30.03 in 10.0 mi North 11.5 mph - N/A   Overcast
7:53 PM 54.0 °F - 34.0 °F 47% 30.05 in 10.0 mi NNW 8.1 mph - N/A   Overcast
8:53 PM 52.0 °F - 33.1 °F 49% 30.07 in 10.0 mi North 9.2 mph - N/A   Mostly Cloudy
9:53 PM 51.1 °F - 34.0 °F 52% 30.11 in 10.0 mi NNW 8.1 mph - N/A   Partly Cloudy
10:53 PM 50.0 °F - 35.1 °F 57% 30.11 in 10.0 mi North 6.9 mph - N/A   Clear
11:53 PM 48.9 °F - 35.1 °F 59% 30.11 in 10.0 mi North 5.8 mph - N/A   Clear